[[{"header":{"parameterUnit":"m.s-1","parameterCategory":2,"la1":30.2992,"la2":30.254,"lo1":-89.0895,"lo2":-89.0443,"dy":0.0025,"dx":0.0025,"nx":19,"ny":19,"refTime":"2026-03-26T21:00:00:Z","depth":"0","parameterNumber":2,"parameterNumberName":"U-component_of_CURRENTS"},"data":[0,0,0,-0.2071,-0.2075,-0.221,-0.221,-0.2218,-0.2218,0,0,0,0,0,0,0,0,0,0,0,-0.2004,-0.2005,-0.2071,-0.2075,-0.221,-0.221,-0.2218,-0.2218,0,0,0,0,0,0,0,0,0,0,0,-0.2004,-0.2005,-0.2006,-0.2076,-0.221,-0.2211,-0.2218,-0.2152,0,0,0,0,0,0,0,0,0,0,-0.204,-0.1994,-0.2005,-0.2006,-0.2077,-0.221,-0.2211,-0.2151,-0.2156,-0.2115,0,-0.2142,0,-0.2194,-0.2216,-0.2216,0,0,0,-0.2056,-0.199,-0.2048,-0.2006,-0.2078,-0.221,-0.2144,-0.2155,-0.2161,-0.2122,-0.2143,-0.2145,-0.2194,-0.2216,-0.2216,-0.2251,-0.2251,0,0,-0.2049,-0.2003,-0.2044,-0.2052,-0.2118,-0.214,-0.2148,-0.216,-0.2151,-0.2143,-0.2147,-0.2195,-0.2216,-0.2216,-0.225,-0.2251,0,0,0,-0.204,-0.1998,-0.2058,-0.2049,-0.2096,-0.2144,-0.2154,-0.215,-0.2177,-0.2148,-0.2195,-0.2216,-0.2215,-0.2249,-0.225,-0.2377,0,0,0,-0.2035,-0.1996,-0.2055,-0.2026,-0.2097,-0.2145,-0.2143,-0.2176,-0.2181,-0.2195,-0.2216,-0.2215,-0.2249,-0.225,-0.2372,-0.2466,0,0,0,-0.1997,-0.1991,-0.2014,-0.2024,-0.2097,-0.2148,-0.2175,-0.2179,-0.2209,-0.2216,-0.2215,-0.2248,-0.225,-0.2368,-0.2457,-0.2536,0,0,0,-0.1936,-0.1973,-0.2012,-0.2085,-0.2096,-0.2225,-0.2175,-0.2242,-0.2257,-0.2215,-0.2249,-0.225,-0.2367,-0.2452,-0.2531,-0.2256,-0.2261,0,0,-0.1954,-0.1973,-0.2028,-0.2069,-0.2211,-0.2204,-0.2323,-0.231,-0.2256,-0.2228,-0.223,-0.2374,-0.2456,-0.2535,-0.2332,-0.2334,0,0,0,-0.2018,-0.2055,-0.2108,-0.2202,-0.2292,-0.2381,-0.2378,-0.2389,-0.2387,-0.2277,-0.2365,-0.2414,-0.2459,-0.228,-0.2282,-0.218,-0.2256,-0.2256,-0.2256,-0.1961,-0.2067,-0.2165,-0.2296,-0.2382,-0.2492,-0.2569,-0.2568,-0.247,-0.2491,-0.2509,-0.265,-0.2458,-0.2457,-0.2356,-0.2478,-0.2479,-0.2479,-0.2479,-0.1997,-0.2054,-0.2206,-0.2329,-0.246,-0.2548,-0.2702,-0.2696,-0.2771,-0.2648,-0.2683,-0.2412,-0.2466,-0.2357,-0.2487,-0.2486,-0.2485,-0.2484,-0.2484,-0.1934,-0.1974,-0.2063,-0.2251,-0.2426,-0.2583,-0.2759,-0.2863,-0.2878,-0.2954,-0.2682,-0.2675,-0.2587,-0.2915,-0.2916,-0.2917,-0.2917,-0.2918,-0.2918,-0.1794,-0.1896,-0.198,-0.2191,-0.2321,-0.2533,-0.2789,-0.2851,-0.285,-0.2827,-0.2822,-0.2599,-0.2783,-0.2775,-0.293,-0.2928,-0.2927,-0.2926,-0.2925,-0.1695,-0.1721,-0.1857,-0.1977,-0.2293,-0.2385,-0.2645,-0.2646,-0.2765,-0.2685,-0.2544,-0.2752,-0.2691,-0.2682,-0.2671,-0.2791,-0.2791,-0.2791,-0.2791,-0.1577,-0.1622,-0.1751,-0.1924,-0.2159,-0.2324,-0.2231,-0.2268,-0.2321,-0.2317,-0.2442,-0.2245,-0.2255,-0.2161,-0.2165,-0.2139,-0.2123,-0.2122,-0.2122,-0.1492,-0.1561,-0.1609,-0.1809,-0.208,-0.2144,-0.1914,-0.1838,-0.1976,-0.21,-0.2377,-0.2405,-0.2125,-0.2148,-0.1997,-0.2009,-0.1965,0,0]},{"header":{"parameterUnit":"m.s-1","parameterCategory":2,"la1":30.2992,"la2":30.254,"lo1":-89.0895,"lo2":-89.0443,"dy":0.0025,"dx":0.0025,"nx":19,"ny":19,"refTime":"2026-03-26T21:00:00:Z","depth":"0","parameterNumber":3,"parameterNumberName":"V-component_of_CURRENTS"},"data":[0,0,0,-0.0284,-0.0278,-0.001,-0.0009,0.0266,0.0268,0,0,0,0,0,0,0,0,0,0,0,-0.0391,-0.039,-0.0284,-0.0278,-0.001,-0.0009,0.0266,0.0268,0,0,0,0,0,0,0,0,0,0,0,-0.0392,-0.039,-0.0388,-0.0277,-0.001,-0.0009,0.0265,0.0082,0,0,0,0,0,0,0,0,0,0,-0.0168,-0.0284,-0.0391,-0.0388,-0.0275,-0.0011,-0.0009,0.0074,0.0094,0.0123,0,0.0154,0,0.022,0.0284,0.0285,0,0,0,-0.0268,-0.03,-0.0204,-0.0388,-0.0273,-0.0011,-0.0128,0.0086,0.0107,0.0148,0.0159,0.017,0.0225,0.0286,0.0287,0.0442,0.0442,0,0,-0.0283,-0.036,-0.0219,-0.0191,-0.0216,-0.0137,-0.012,0.01,0.0101,0.016,0.0178,0.0229,0.0287,0.0289,0.0442,0.0442,0,0,0,-0.0332,-0.0371,-0.0279,-0.0204,-0.0148,-0.0129,-0.011,0.0091,0.0128,0.0181,0.0232,0.0289,0.0292,0.0442,0.0442,0.0325,0,0,0,-0.034,-0.0398,-0.0286,-0.0331,-0.0152,-0.0021,-0.0125,0.0112,0.014,0.0231,0.0289,0.0294,0.0442,0.0442,0.0328,0.0263,0,0,0,-0.0401,-0.0405,-0.0373,-0.0336,-0.0219,-0.0022,0.0028,0.012,0.0171,0.0285,0.0295,0.0442,0.0442,0.0331,0.0269,0.0292,0,0,0,-0.0489,-0.047,-0.0376,-0.034,-0.0222,-0.0082,0.0028,0.0133,0.0219,0.029,0.0442,0.0442,0.0332,0.0273,0.0295,0.0264,0.0249,0,0,-0.0516,-0.0476,-0.0452,-0.036,-0.0276,-0.0118,-0.0028,0.0127,0.0228,0.0367,0.0372,0.0327,0.027,0.0293,0.0251,0.0236,0,0,0,-0.0493,-0.0483,-0.0441,-0.0365,-0.0233,-0.0128,0.0046,0.0122,0.0249,0.0281,0.0355,0.0323,0.0342,0.033,0.0318,0.0585,0.0441,0.0441,0.0441,-0.0627,-0.0541,-0.0515,-0.0397,-0.0312,-0.0124,-0.0037,0.0102,0.0207,0.0235,0.0249,0.0212,0.0197,0.0188,0.0463,0.0282,0.0282,0.0282,0.0281,-0.0691,-0.0668,-0.0583,-0.0533,-0.0402,-0.0312,-0.0104,-0.0018,0.0119,0.018,0.0205,0.0232,0.0168,0.0466,0.0274,0.0276,0.0277,0.0277,0.0278,-0.0782,-0.0758,-0.073,-0.0673,-0.0602,-0.0437,-0.0364,-0.0193,-0.0006,0.0021,0.009,0.0092,0.0341,0.0058,0.0058,0.0058,0.0057,0.0057,0.0057,-0.0875,-0.084,-0.0872,-0.0811,-0.0802,-0.0733,-0.0513,-0.0411,-0.0195,-0.0038,-0.0036,0.0363,0.0145,0.0139,0.0054,0.0054,0.0055,0.0055,0.0055,-0.0929,-0.0944,-0.1009,-0.103,-0.1018,-0.0995,-0.0796,-0.055,-0.0388,-0.0288,0.0254,-0.0031,0.0018,0.0028,0.0021,-0.0089,-0.0089,-0.0089,-0.0089,-0.0985,-0.099,-0.111,-0.1189,-0.1227,-0.1115,-0.099,-0.0668,-0.0104,0.0226,0.0348,0.0417,0.0411,0.049,0.049,0.0497,0.051,0.0511,0.0513,-0.1011,-0.1063,-0.1166,-0.1258,-0.1316,-0.1234,-0.1072,-0.0654,0.018,0.057,0.073,0.0704,0.0841,0.081,0.0963,0.0941,0.0961,0,0]}],[{"header":{"parameterUnit":"m.s-1","parameterCategory":2,"la1":30.2992,"la2":30.254,"lo1":-89.0895,"lo2":-89.0443,"dy":0.0025,"dx":0.0025,"nx":19,"ny":19,"refTime":"2026-03-26T21:00:00:Z","depth":"2","parameterNumber":2,"parameterNumberName":"U-component_of_CURRENTS"},"data":[0,0,0,-0.1915,-0.1916,-0.2006,-0.2007,-0.2209,-0.2211,0,0,0,0,0,0,0,0,0,0,0,-0.1886,-0.1886,-0.1915,-0.1916,-0.2006,-0.2007,-0.2209,-0.2211,0,0,0,0,0,0,0,0,0,0,0,-0.1886,-0.1886,-0.1886,-0.1917,-0.2006,-0.2007,-0.2208,-0.2125,0,0,0,0,0,0,0,0,0,0,-0.203,-0.1994,-0.1886,-0.1886,-0.1917,-0.2006,-0.2007,-0.212,-0.213,-0.2185,0,-0.2181,0,-0.2191,-0.2224,-0.2224,0,0,0,-0.1943,-0.1986,-0.1991,-0.1886,-0.1917,-0.2005,-0.1973,-0.2125,-0.2137,-0.2198,-0.2184,-0.2191,-0.2194,-0.2225,-0.2226,-0.2429,-0.243,0,0,-0.1938,-0.193,-0.1983,-0.1997,-0.192,-0.197,-0.1975,-0.2132,-0.2148,-0.2184,-0.2195,-0.2197,-0.2226,-0.2228,-0.2429,-0.243,0,0,0,-0.1906,-0.1926,-0.1928,-0.199,-0.1994,-0.1972,-0.1978,-0.2141,-0.2135,-0.2197,-0.22,-0.2227,-0.223,-0.2428,-0.2429,-0.2514,0,0,0,-0.1904,-0.1905,-0.1925,-0.1925,-0.1989,-0.2059,-0.1985,-0.2125,-0.2142,-0.2199,-0.2228,-0.2232,-0.2427,-0.2428,-0.251,-0.2516,0,0,0,-0.1886,-0.1905,-0.1903,-0.1924,-0.1948,-0.2056,-0.2062,-0.2129,-0.2143,-0.2225,-0.2232,-0.2426,-0.2428,-0.2507,-0.251,-0.2397,0,0,0,-0.1892,-0.189,-0.1903,-0.1933,-0.1946,-0.2033,-0.2061,-0.2148,-0.2218,-0.2228,-0.2427,-0.2429,-0.2505,-0.2507,-0.2396,-0.2283,-0.2277,0,0,-0.189,-0.189,-0.1914,-0.1927,-0.2002,-0.2024,-0.2154,-0.2249,-0.2266,-0.2385,-0.2389,-0.2512,-0.251,-0.2397,-0.2388,-0.2378,0,0,0,-0.1916,-0.1928,-0.1959,-0.2008,-0.2067,-0.2182,-0.2245,-0.2302,-0.2422,-0.2309,-0.2525,-0.252,-0.2445,-0.2377,-0.2371,-0.2437,-0.2437,-0.2437,-0.2437,-0.1886,-0.1941,-0.201,-0.2091,-0.2172,-0.2299,-0.2388,-0.2476,-0.249,-0.2555,-0.2601,-0.2589,-0.2526,-0.2517,-0.263,-0.263,-0.2631,-0.2631,-0.2631,-0.1897,-0.1947,-0.2063,-0.2149,-0.2285,-0.2403,-0.258,-0.2612,-0.2658,-0.2699,-0.262,-0.2488,-0.2514,-0.2638,-0.2637,-0.2636,-0.2635,-0.2635,-0.2634,-0.1879,-0.1917,-0.1986,-0.2144,-0.2309,-0.248,-0.2562,-0.2658,-0.2711,-0.2694,-0.2491,-0.2488,-0.2557,-0.2616,-0.2615,-0.2615,-0.2614,-0.2614,-0.2614,-0.1821,-0.1901,-0.1966,-0.2141,-0.2225,-0.2348,-0.2509,-0.252,-0.2526,-0.2538,-0.2535,-0.258,-0.2581,-0.2553,-0.2608,-0.2609,-0.261,-0.261,-0.2611,-0.1821,-0.185,-0.1903,-0.1972,-0.209,-0.2065,-0.2237,-0.2263,-0.2266,-0.2256,-0.2405,-0.2412,-0.2334,-0.2338,-0.2303,-0.2289,-0.2289,-0.2289,-0.2289,-0.1815,-0.1836,-0.1835,-0.1845,-0.186,-0.1915,-0.181,-0.1868,-0.2019,-0.2031,-0.2042,-0.2068,-0.2087,-0.1995,-0.2008,-0.1966,-0.1863,-0.1862,-0.1862,-0.1848,-0.1805,-0.1773,-0.174,-0.1738,-0.1666,-0.1557,-0.1512,-0.1632,-0.1844,-0.1958,-0.2262,-0.2335,-0.2351,-0.2237,-0.2247,-0.219,0,0]},{"header":{"parameterUnit":"m.s-1","parameterCategory":2,"la1":30.2992,"la2":30.254,"lo1":-89.0895,"lo2":-89.0443,"dy":0.0025,"dx":0.0025,"nx":19,"ny":19,"refTime":"2026-03-26T21:00:00:Z","depth":"2","parameterNumber":3,"parameterNumberName":"V-component_of_CURRENTS"},"data":[0,0,0,-0.0015,-0.0015,0.0031,0.0032,0.0202,0.0203,0,0,0,0,0,0,0,0,0,0,0,-0.0028,-0.0028,-0.0015,-0.0015,0.0031,0.0032,0.0201,0.0203,0,0,0,0,0,0,0,0,0,0,0,-0.0028,-0.0028,-0.0028,-0.0015,0.0031,0.0032,0.0201,0.0143,0,0,0,0,0,0,0,0,0,0,0.0086,0.0049,-0.0028,-0.0028,-0.0014,0.0031,0.0032,0.0139,0.0147,0.0207,0,0.0201,0,0.02,0.0215,0.0216,0,0,0,0.0003,0.0042,0.0054,-0.0028,-0.0014,0.0031,0.0016,0.0143,0.0151,0.0217,0.0203,0.0209,0.0203,0.0217,0.0218,0.036,0.036,0,0,0.0001,-0.0011,0.0048,0.0059,-0.0016,0.0014,0.0017,0.0147,0.0153,0.0204,0.0212,0.0206,0.0218,0.0219,0.036,0.036,0,0,0,-0.0019,-0.0013,-0.0006,0.0053,0.0049,0.0015,0.0018,0.0148,0.0149,0.0214,0.0208,0.0219,0.0221,0.036,0.036,0.0267,0,0,0,-0.0019,-0.0026,-0.0008,-0.0013,0.0045,0.0082,0.0016,0.014,0.0154,0.0207,0.0219,0.0223,0.036,0.036,0.0269,0.0174,0,0,0,-0.0028,-0.0027,-0.0026,-0.0014,-0.0003,0.008,0.0089,0.0143,0.0151,0.0216,0.0223,0.0359,0.036,0.027,0.018,0.0115,0,0,0,-0.0033,-0.0067,-0.0027,-0.0065,-0.0004,-0.0,0.0088,0.0112,0.0158,0.022,0.036,0.036,0.0271,0.0183,0.0119,0.0167,0.0153,0,0,-0.0086,-0.0074,-0.0099,-0.0063,-0.0098,-0.0004,0.0003,0.0103,0.0194,0.0328,0.0331,0.0268,0.018,0.0116,0.0194,0.0178,0,0,0,-0.0123,-0.0147,-0.0149,-0.0157,-0.0125,-0.0084,0.0017,0.0088,0.0206,0.0221,0.0304,0.0251,0.0213,0.0253,0.0241,0.0362,0.0362,0.0362,0.0362,-0.0203,-0.0202,-0.0254,-0.0244,-0.022,-0.0122,-0.0073,0.0055,0.0161,0.0208,0.0204,0.0123,0.0169,0.0159,0.0267,0.0266,0.0266,0.0266,0.0266,-0.031,-0.0355,-0.0334,-0.0385,-0.0319,-0.0284,-0.0131,-0.0045,0.0046,0.0155,0.0125,0.0188,0.0141,0.0259,0.026,0.0261,0.0262,0.0262,0.0263,-0.0375,-0.0403,-0.0428,-0.049,-0.0485,-0.0392,-0.037,-0.0227,-0.0078,-0.0086,-0.0018,-0.0015,0.0015,-0.0084,-0.0084,-0.0085,-0.0086,-0.0086,-0.0087,-0.0435,-0.0466,-0.0562,-0.0608,-0.0653,-0.0636,-0.0519,-0.0452,-0.0289,-0.0153,-0.015,0.0004,0.0016,-0.0004,-0.0097,-0.0095,-0.0094,-0.0093,-0.0092,-0.0561,-0.0564,-0.0709,-0.0783,-0.0872,-0.0878,-0.077,-0.0586,-0.0502,-0.041,-0.0173,-0.0167,-0.0147,-0.0133,-0.0155,-0.0283,-0.0283,-0.0283,-0.0283,-0.065,-0.066,-0.0859,-0.0986,-0.1058,-0.0994,-0.0919,-0.0673,-0.0413,-0.0261,-0.0262,-0.0147,-0.0139,-0.0111,-0.0098,-0.0116,-0.0234,-0.0234,-0.0234,-0.077,-0.08,-0.0964,-0.106,-0.1146,-0.1084,-0.0974,-0.0655,-0.0274,-0.0234,-0.0272,-0.0276,-0.0101,-0.0091,-0.0037,-0.0021,-0.0046,0,0]}],[{"header":{"parameterUnit":"m.s-1","parameterCategory":2,"la1":30.2992,"la2":30.254,"lo1":-89.0895,"lo2":-89.0443,"dy":0.0025,"dx":0.0025,"nx":19,"ny":19,"refTime":"2026-03-26T21:00:00:Z","depth":"4","parameterNumber":2,"parameterNumberName":"U-component_of_CURRENTS"},"data":[0,0,0,-0.1344,-0.1346,-0.1483,-0.1484,-0.1599,-0.16,0,0,0,0,0,0,0,0,0,0,0,-0.1299,-0.13,-0.1343,-0.1347,-0.1483,-0.1484,-0.1599,-0.16,0,0,0,0,0,0,0,0,0,0,0,-0.1298,-0.13,-0.1301,-0.1347,-0.1483,-0.1484,-0.1599,-0.1512,0,0,0,0,0,0,0,0,0,0,-0.1387,-0.1353,-0.1299,-0.1301,-0.1348,-0.1483,-0.1484,-0.1508,-0.1517,-0.1519,0,-0.1545,0,-0.1572,-0.1606,-0.1607,0,0,0,-0.1351,-0.1346,-0.1381,-0.1301,-0.1349,-0.1483,-0.1423,-0.1514,-0.1524,-0.1531,-0.1547,-0.1552,-0.1573,-0.1607,-0.1607,-0.1718,-0.1718,0,0,-0.1344,-0.1325,-0.1374,-0.1387,-0.139,-0.1418,-0.1427,-0.1521,-0.1532,-0.1547,-0.1555,-0.1575,-0.1607,-0.1608,-0.1717,-0.1718,0,0,0,-0.1319,-0.132,-0.1354,-0.1382,-0.141,-0.1422,-0.1432,-0.1529,-0.154,-0.1556,-0.1577,-0.1608,-0.1609,-0.1717,-0.1718,-0.1735,0,0,0,-0.1315,-0.1305,-0.135,-0.1341,-0.1409,-0.1479,-0.1438,-0.1534,-0.1545,-0.1576,-0.1608,-0.161,-0.1716,-0.1717,-0.1733,-0.1735,0,0,0,-0.1292,-0.1302,-0.1319,-0.1339,-0.1396,-0.1479,-0.1496,-0.1537,-0.1557,-0.1607,-0.161,-0.1716,-0.1717,-0.1732,-0.1732,-0.1789,0,0,0,-0.1266,-0.1294,-0.1319,-0.1363,-0.1395,-0.1481,-0.1496,-0.1567,-0.1612,-0.1608,-0.1716,-0.1717,-0.1731,-0.1731,-0.1787,-0.1578,0,0,0,-0.1282,-0.1296,-0.1321,-0.1347,-0.1414,-0.1462,-0.1547,-0.161,-0.1631,-0.168,-0.1684,-0.1734,-0.1732,-0.1788,-0.1657,0,0,0,0,-0.1314,-0.1329,-0.1356,-0.1404,-0.147,-0.1541,-0.1608,-0.1645,-0.1713,-0.1663,-0.1755,-0.1754,-0.1789,-0.1662,-0.1724,-0.1724,-0.1723,-0.1723,-0.1723,-0.1289,-0.1332,-0.1374,-0.1438,-0.15,-0.1602,-0.1663,-0.1726,-0.1741,-0.178,-0.1784,-0.1859,-0.1726,-0.1806,-0.1806,-0.1806,-0.1807,-0.1807,-0.1807,-0.1287,-0.1299,-0.1377,-0.1434,-0.1521,-0.1599,-0.172,-0.1757,-0.1849,-0.1834,-0.1867,-0.1708,-0.1809,-0.1809,-0.1808,-0.1808,-0.1808,-0.1808,-0.1807,-0.1238,-0.1248,-0.1307,-0.1387,-0.1483,-0.1595,-0.1687,-0.1778,-0.186,-0.1896,-0.1792,-0.1887,-0.1869,-0.1928,-0.1929,-0.1929,-0.1929,-0.1929,-0.193,-0.1147,-0.1207,-0.1233,-0.1335,-0.138,-0.1486,-0.1675,-0.1752,-0.1862,-0.1795,-0.1915,-0.1901,-0.1897,-0.1877,-0.1934,-0.1933,-0.1932,-0.1932,-0.1932,-0.1055,-0.1089,-0.1109,-0.1149,-0.1259,-0.1329,-0.1548,-0.1683,-0.1759,-0.1763,-0.1751,-0.1759,-0.174,-0.174,-0.1714,-0.1725,-0.1722,-0.172,0,-0.0965,-0.0992,-0.0987,-0.1007,-0.1064,-0.1221,-0.1311,-0.1464,-0.1578,-0.1502,-0.1739,-0.1719,-0.1725,-0.1696,-0.1693,-0.1656,0,0,0,-0.0886,-0.0897,-0.0852,-0.0896,-0.0949,-0.1115,-0.1327,-0.1339,-0.1542,-0.1599,-0.1658,-0.1674,-0.186,-0.1946,-0.1936,-0.1931,-0.19,0,0]},{"header":{"parameterUnit":"m.s-1","parameterCategory":2,"la1":30.2992,"la2":30.254,"lo1":-89.0895,"lo2":-89.0443,"dy":0.0025,"dx":0.0025,"nx":19,"ny":19,"refTime":"2026-03-26T21:00:00:Z","depth":"4","parameterNumber":3,"parameterNumberName":"V-component_of_CURRENTS"},"data":[0,0,0,-0.0037,-0.0037,-0.0018,-0.0018,0.0025,0.0026,0,0,0,0,0,0,0,0,0,0,0,-0.0043,-0.0043,-0.0037,-0.0037,-0.0018,-0.0018,0.0025,0.0026,0,0,0,0,0,0,0,0,0,0,0,-0.0043,-0.0043,-0.0043,-0.0037,-0.0018,-0.0018,0.0025,0.0008,0,0,0,0,0,0,0,0,0,0,-0.0012,-0.0023,-0.0043,-0.0043,-0.0037,-0.0018,-0.0018,0.0007,0.0009,0.002,0,0.0018,0,0.002,0.0028,0.0028,0,0,0,-0.003,-0.0024,-0.0021,-0.0043,-0.0037,-0.0018,-0.0024,0.0008,0.001,0.0022,0.0018,0.002,0.0021,0.0028,0.0029,0.0053,0.0053,0,0,-0.0031,-0.0035,-0.0023,-0.002,-0.0038,-0.0025,-0.0024,0.0009,0.0011,0.0018,0.0021,0.0021,0.0029,0.0029,0.0053,0.0053,0,0,0,-0.0039,-0.0036,-0.0034,-0.0022,-0.0021,-0.0025,-0.0023,0.0009,0.0009,0.0021,0.0022,0.0029,0.0029,0.0053,0.0053,-0.0026,0,0,0,-0.0039,-0.0041,-0.0035,-0.0037,-0.0022,-0.0008,-0.0024,0.0007,0.0011,0.0022,0.0029,0.003,0.0053,0.0053,-0.0024,-0.0078,0,0,0,-0.0043,-0.0042,-0.0042,-0.0037,-0.0032,-0.0009,-0.0007,0.0008,0.0011,0.0028,0.003,0.0053,0.0053,-0.0022,-0.0074,-0.0082,0,0,0,-0.0044,-0.0067,-0.0042,-0.0069,-0.0033,-0.0049,-0.0007,-0.0007,0.0002,0.0029,0.0053,0.0053,-0.0021,-0.0071,-0.008,-0.0076,0,0,0,-0.0078,-0.0071,-0.009,-0.0068,-0.0108,-0.005,-0.0076,-0.004,0.0009,0.0045,0.0046,-0.0024,-0.0073,-0.0082,-0.0079,0,0,0,0,-0.0105,-0.0122,-0.0129,-0.0144,-0.0137,-0.0138,-0.0091,-0.006,-0.0023,0.0014,-0.0003,-0.0032,-0.0035,-0.0024,0.0053,0.0053,0.0053,0.0053,0.0053,-0.0152,-0.0162,-0.0208,-0.0219,-0.0224,-0.0192,-0.0183,-0.0127,-0.0068,-0.0053,-0.008,-0.0122,-0.0112,-0.0049,-0.0049,-0.0049,-0.005,-0.005,-0.005,-0.0223,-0.0254,-0.0273,-0.032,-0.0315,-0.0321,-0.027,-0.0223,-0.0183,-0.0126,-0.0124,-0.0088,-0.0057,-0.0056,-0.0055,-0.0054,-0.0053,-0.0053,-0.0053,-0.0254,-0.0275,-0.0308,-0.0382,-0.0422,-0.0403,-0.0429,-0.0362,-0.0267,-0.0273,-0.0215,-0.0168,-0.0179,-0.0249,-0.0249,-0.025,-0.025,-0.025,-0.025,-0.0267,-0.0307,-0.0381,-0.0449,-0.0503,-0.0539,-0.0515,-0.0478,-0.0379,-0.0313,-0.0285,-0.0188,-0.0182,-0.0189,-0.0255,-0.0254,-0.0253,-0.0253,-0.0253,-0.0303,-0.0325,-0.0437,-0.0507,-0.0628,-0.0651,-0.0639,-0.0529,-0.0487,-0.0398,-0.0317,-0.0313,-0.0282,-0.0273,-0.0282,-0.0378,-0.0378,-0.0379,0,-0.032,-0.0341,-0.0495,-0.0616,-0.0712,-0.0722,-0.068,-0.0608,-0.0469,-0.0469,-0.047,-0.0385,-0.0378,-0.0348,-0.034,-0.0354,0,0,0,-0.0348,-0.0393,-0.0501,-0.0631,-0.0749,-0.0697,-0.0665,-0.0619,-0.0501,-0.0422,-0.0384,-0.0383,-0.0321,-0.0268,-0.0209,-0.0201,-0.0209,0,0]}]]